Tracking 19847 objects as of 15-Sep-2019
HD Live streaming from Space Station
objects crossing your sky now

COSMOS 87

Track COSMOS 87 now!
10-day predictions
COSMOS 87 is classified as:


NORAD ID: 1585
Int'l Code: 1965-073B
Perigee: 1,324.9 km
Apogee: 1,639.9 km
Inclination: 56.1 °
Period: 115.4 minutes
Semi major axis: 7853 km
RCS: 0.3642 m2 (medium)
Launch date: September 18, 1965
Source: Commonwealth of Independent States (former USSR) (CIS)
Launch site: TYURATAM MISSILE AND SPACE COMPLEX (TTMTR)
aabbcc
Your satellite tracking list
Your tracking list is empty




NASA's NSSDC Master Catalog

Two Line Element Set (TLE):
1  1585U 65073B   19257.83656900 -.00000102 +00000-0 -51582-4 0  9991
2  1585 056.0614 074.8757 0200580 316.4404 143.4359 12.47425742458057
Source of the keplerian elements: AFSPC